Location: Libas
(9.8833°N, 125.9833°E)
Time: 21:47:35
(UTC+00:00)

COSMO-SKYMED 1 - Pass Details

Date: 27 October 2020
Orbit: 621 x 623 km, 97.9° (Epoch: 26 November)

Event Time Altitude Azimuth Distance (km) Brightness Sun altitude
Rises 20:44:19 0° 153° (SSE) 2,893 6.6 -10.8°
Reaches altitude 10° 20:46:37 10° 145° (SE) 1,987 5.9 -10.2°
Maximum altitude 20:50:37 37° 77° (ENE) 964 4.2 -9.3°
Drops below altitude 10° 20:54:36 10° 10° (N) 1,985 5.1 -8.3°
Sets 20:56:54 0° 2° (N) 2,891 5.9 -7.8°
